Current Version              Previous Version:    01  02  03  04  05  06  07  08  09  10  11  12  13  14  15  16  17  18  19  20  21  22  23  24  25  26  27  28  29  30  
   31  32  33  34  35  36  37  38  39  40  41  42  43  44  45  46  47  48  49  50  51  52  53  54  55  56  57  58  59  60  

[Printable]
343
ASUS44 KEWX 311402
RWRTX
SOUTH TEXAS REGIONAL WEATHER ROUNDUP
NATIONAL WEATHER SERVICE AUSTIN/SAN ANTONIO TX
900 AM CDT THU JUL 31 2014

NOTE: "FAIR" INDICATED FEW OR NO CLOUDS BELOW 12,000 FEET WITH NO
SIGNIFICANT WEATHER AND/OR OBSTRUCTIONS TO VISIBILITY.

* - THESE STATIONS ARE NOT NWS OR FAA STATIONS...AND ARE NOT SUBJECT
    TO NWS AND FAA QUALITY CONTROL.

TXZ171-172-183>190-311500-
TEXAS HILL COUNTRY AND EDWARDS PLATEAU

CITY           SKY/WX    TMP DP  RH WIND       PRES   REMARKS
JUNCTION       PTSUNNY   79  68  69 NE9       30.04R
*LLANO         CLOUDY    79  70  73 CALM      30.04R
BURNET         PTSUNNY   79  70  74 SW6       30.03R
*HORSESHOE BAY CLOUDY    79  69  70 W5        30.01S
*KERRVILLE     CLOUDY    76  71  83 SW5       30.03R
*FREDERICKSBRG CLOUDY    77  69  78 W5        30.04R
*ROCKSPRINGS   CLOUDY    75  70  83 E3        30.08R
*BOERNE STAGE  CLOUDY    77  70  78 S9        30.02R
*CASTROVILLE   CLOUDY    81  71  71 S7        29.99S
HONDO          CLOUDY    79  73  82 SE6       30.00R
*UVALDE        CLOUDY    80  74  81 CALM      29.98S
DEL RIO        MOSUNNY   80  73  79 E9        29.98R
LAUGHLIN AFB   MOSUNNY   80  73  79 SE8       29.99R
CARRIZO SPRGS  MOSUNNY   79  73  83 SE5       29.93R
$$

TXZ173-191>194-202-209-217>225-228-311500-
CENTRAL AND SOUTH CENTRAL TEXAS

CITY           SKY/WX    TMP DP  RH WIND       PRES   REMARKS
GEORGETOWN     CLOUDY    79  73  83 SW7       30.00R
AUSTIN/BERGSTM PTSUNNY   80  74  81 S7        29.97R
AUSTIN/MABRY   CLOUDY    79  73  82 CALM      29.99R
*AUSTIN/EXEC   CLOUDY    77  73  88 SW5       29.99R FOG
*LAGO VISTA    CLOUDY    79  71  77 W5        30.02R
SAN MARCOS     MOSUNNY   81  72  74 S10       29.99S
NEW BRAUNFELS  PTSUNNY   81  73  76 SW9       29.96S
RANDOLPH AFB   PTSUNNY   81  72  74 S9        29.98S
PT SAN ANTONIO CLOUDY    81  73  77 S9        29.97R
SAN ANTONIO    PTSUNNY   81  73  76 VRB7      29.98S
STINSON FIELD  PTSUNNY   81  74  79 S8        29.96S
*PLEASANTON    MOSUNNY   82  73  74 SE6       29.96S
*LA GRANGE     PTSUNNY   82  77  85 S7        29.96S HX  90
*GIDDINGS      PTSUNNY   80  74  82 CALM      30.02R
*GONZALES      CLOUDY    83  76  80 S8        29.96F HX  91
$$

TXZ163>164-176>182-195>201-210>213-226-227-235-311500-
SOUTHEAST TEXAS

CITY           SKY/WX    TMP DP  RH WIND       PRES   REMARKS
COLLEGE STN    PTSUNNY   79  74  84 S7        29.99R
*BRYAN         CLOUDY    79  74  84 S6        29.99R
*CALDWELL      PTSUNNY   79  75  89 S6        30.01R
*CROCKETT      PTSUNNY   79  75  89 CALM      30.04R
*BRENHAM       PTSUNNY   76  73  90 CALM      29.99R
HUNTSVILLE     PTSUNNY   79  74  84 S5        30.00R
CONROE         PTSUNNY   76  74  93 CALM      30.00R
HOUSTON BUSH   PTSUNNY   82  74  76 SE7       29.98S
HOUSTON HOBBY  PTSUNNY   82  74  76 S3        29.98S
*HOUSTON SW AP MOSUNNY   82  76  81 S3        29.99R
PEARLAND       MOSUNNY   83  74  74 CALM      30.00R
HOUSTON HOOKS  MOSUNNY   81  76  84 CALM      29.99R
ELLINGTON FLD  PTSUNNY   88  81  79 VRB2      30.00R HX 105
SUGAR LAND     MOSUNNY   83  76  79 S7        29.98R HX  91
*HOUSTON EXEC  MOSUNNY   82  75  78 SE8       29.99S
*CLEVELAND MUN MOSUNNY   77  74  91 CALM      30.01R
*WHARTON       SUNNY     83  76  79 S7        29.98S HX  90
$$

TXZ214>216-236>238-311500-
THE UPPER TEXAS COAST

CITY           SKY/WX    TMP DP  RH WIND       PRES   REMARKS
*ORANGE        CLOUDY    78  71  80 E5        30.03R
PORT ARTHUR    CLOUDY    81  73  76 NE7       29.99S
GALVESTON      MOSUNNY   85  73  67 SW9       29.99R HX  91
ANGLETON       SUNNY     83  76  79 S6        29.98R HX  91
*BAY CITY      PTSUNNY   84  82  95 CALM      29.98R HX 101
PALACIOS       PTSUNNY   85  77  77 S10       29.96R HX  95
$$

TXZ229>234-239>247-311500-
TEXAS COASTAL BEND AND RIO GRANDE PLAINS

CITY           SKY/WX    TMP DP  RH WIND       PRES   REMARKS
VICTORIA       CLOUDY    85  77  77 S13       29.96R HX  95
*BEEVILLE      PTSUNNY   83  76  79 S14       29.95S HX  92
ROCKPORT       PTSUNNY   84  77  79 S10G23    29.94R HX  94
*PORT ARANSAS  MOSUNNY   82  78  87 S8        29.95R HX  90
*PORT LAVACA   PTSUNNY   83  76  79 SW14      29.96R HX  92
*INGLESIDE     PTSUNNY   85  77  77 S16G23    29.94R HX  95
CORPUS CHRISTI PTSUNNY   83  77  82 S12       29.93S HX  92
CORPUS NAS     PTSUNNY   84  79  85 S14       29.94R HX  96
*ROBSTOWN      NOT AVBL
ALICE          PTSUNNY   84  76  76 S17       29.93R HX  93
KINGSVILLE NAS PTSUNNY   86  77  74 S18       29.92F HX  97
COTULLA        SUNNY     81  73  76 SE12      29.93S
*FAITH RANCH   SUNNY     81  72  74 SE5       29.94S
LAREDO         SUNNY     84  73  69 SE15      29.95R HX  90
$$

TXZ248>255-311500-
DEEP SOUTH TEXAS

CITY           SKY/WX    TMP DP  RH WIND       PRES   REMARKS
BROWNSVILLE    MOSUNNY   85  77  77 S18       29.94R HX  95
PORT ISABEL    SUNNY     86  75  69 S13       29.93S HX  95
*SOUTH PADRE   SUNNY     84  77  79 S8        29.95R HX  94
HARLINGEN      MOSUNNY   85  77  77 S18       29.92S HX  95
*HEBBRONVILLE  MOSUNNY   80  73  81 SE13      29.95R
MCALLEN        SUNNY     84  75  74 S17G24    29.92S HX  92
*WESLACO       MOSUNNY   85  74  69 S16G22    29.92R HX  92
FALFURRIAS     PTSUNNY   71  71 100 S13       29.94R
EDINBURG       SUNNY     86  74  67 S16       29.93S HX  94
*ZAPATA        NOT AVBL
$$

TXZ213>215-236>238-242>244-246-247-251-254-255-311500-
CMAN STATIONS

STATION/POSITION TIME  TEMP    WIND        PRES    WAVE
                       AIR SEA DIR/SP/G            HT/PER
                 (UTC) (F)     (DEG/KT/KT) (MB)    (FT/S)
SABINE PASS      1300   85 86  170/  5/  9 1015.8
SEA RIM ST PARK  1300   83     160/  8/  9 1015.8
NORTH JETTY/GLS  1300   84 88  250/  7/ 10   N/A
EAGLE POINT      1300   81 86  260/  2/  4 1015.5
MORGANS POINT    1300   82 91  260/  3/  5 1015.4
PORT O`CONNOR    1300          180/ 11/ 14   N/A
PORT ARANSAS     1300   80 80  170/ 10/ 11 1014.1
MALAQUITE BEACH  1300   79 79  170/ 11/ 12 1013.0
BAFFIN BAY       1300   80 79  170/ 13/ 14 1013.7
PORT ISABEL      1300   84 82  160/ 12/ 15 1014.1
$$

GMZ080-GMZ150>470-311500-
OFFSHORE BUOY REPORTS

STATION/POSITION TIME  TEMP    WIND        PRES    WAVE
                       AIR SEA DIR/SP/G            HT/PER
                 (UTC) (F)     (DEG/KT/KT) (MB)    (FT/S)
90 E PT ARANSAS  1400   84 84  190/ 10/ 12 1015.4    3/ 4
35 NE PT MANSFLD 1300   83 83  170/ 17/ 21 1013.1    3/ 5
200 E PT ISABEL  1300   84 86  190/  6/  8 1015.4    1
$$